Regional Weather Roundup
Issued by NWS

Home | Current Version | Previous Version | Text Only | Print | Product List | Glossary Off
Versions: 1 2 3 4 5 6 7 8 9 10 11 12 13 14 15 16 17 18 19 20 21 22 23 24 25 26 27 28 29 30 31 32 33 34 35 36 37 38 39 40 41 42 43 44 45 46 47 48 49 50

000
ASUS43 KOAX 241002
RWRNE

WEATHER ROUNDUP FOR NEBRASKA
NATIONAL WEATHER SERVICE OMAHA NE
500 AM CDT FRI MAR 24 2017

NOTES: SATELLITE DATA IS BEING USED TO AUGMENT CLOUD COVER ABOVE
       12000 FEET.
       "FAIR" INDICATES FEW OR NO CLOUDS BELOW 12,000 FEET WITH NO
       SIGNIFICANT WEATHER AND/OR OBSTRUCTIONS TO VISIBILITY.

  * THESE STATIONS DO NOT REPORT WEATHER SUCH AS RAIN...SNOW OR FOG.

NEZ001>004-019>022-054>056-241100-
NEBRASKA PANHANDLE

CITY           SKY/WX    TMP DP  RH WIND       PRES   REMARKS
SCOTTSBLUFF    CLOUDY    42  37  82 N18G25    29.96R
ALLIANCE       CLOUDY    40  38  93 N20G30    29.92R WCI  30
CHADRON        CLOUDY    40  37  89 N5        30.00R
KIMBALL        LGT RAIN  39  39 100 N21       29.91R WCI  29
SIDNEY         LGT RAIN  41  38  89 N20G30    29.86R
$$

NEZ057>060-069>072-079>082-241100-
SOUTHWEST NEBRASKA

CITY           SKY/WX    TMP DP  RH WIND       PRES   REMARKS
NORTH PLATTE   CLOUDY    48  45  89 NE20G26   29.78F
IMPERIAL       LGT RAIN  49  46  90 NE30G37   29.74R FOG
LEXINGTON      CLOUDY    53  50  91 N23       29.73S
MCCOOK         CLOUDY    52  51  97 NE21G29   29.68
OGALLALA       RAIN      46  45  93 N17G25    29.81S
$$

NEZ005>010-023>029-035>040-094-241100-
NORTH CENTRAL NEBRASKA

CITY           SKY/WX    TMP DP  RH WIND       PRES   REMARKS
VALENTINE      CLOUDY    42  36  79 N9        29.91R
AINSWORTH      CLOUDY    40  40  98 N10       29.89R WCI  34
BROKEN BOW     LGT RAIN  49  46  90 N18G26    29.78S
O`NEILL        DRIZZLE   42  41  96 N18       29.85R
ORD            CLOUDY    48  45  89 N21       29.80S
THEDFORD       LGT RAIN  45  44  96 N9        29.86R
$$

NEZ041-046>049-061>064-073>077-083>087-241100-
SOUTH CENTRAL NEBRASKA

CITY           SKY/WX    TMP DP  RH WIND       PRES   REMARKS
GRAND ISLAND   CLOUDY    53  53 100 NE14      29.72F
AURORA         CLOUDY    54  53  97 NE14      29.72F
HASTINGS       CLOUDY    54  52  93 NE12      29.72F
HEBRON         LGT RAIN  58  55  88 N12       29.72R
HOLDREGE       CLOUDY    53  51  94 NE16      29.71R
KEARNEY *      CLOUDY    54  48  82 NE13      29.73R
YORK           LGT RAIN  55  55 100 NE14      29.74S
$$

NEZ011>018-030>034-042>045-241100-
NORTHEAST NEBRASKA

CITY           SKY/WX    TMP DP  RH WIND       PRES   REMARKS
NORFOLK        LGT RAIN  48  46  93 N13       29.78R
ALBION         CLOUDY    50  47  88 N14       29.78F
BLAIR          RAIN      55  53  94 NE8       29.74S
FREMONT        RAIN      54  53  98 NW9       29.77R
TEKAMAH        LGT RAIN  51  49  92 N8        29.74F
WAYNE          LGT RAIN  48  47  99 N10       29.77S
$$

NEZ050>053-065>068-078-088>093-241100-
SOUTHEAST NEBRASKA

CITY           SKY/WX    TMP DP  RH WIND       PRES   REMARKS
LINCOLN        CLOUDY    59  56  89 NE8       29.73F
OMAHA EPPLEY   CLOUDY    54  50  86 NW7       29.74F
BEATRICE       CLOUDY    62  51  68 W6        29.71R
FALLS CITY     CLOUDY    66  49  54 S12       29.71F
NEBRASKA CITY  CLOUDY    62  43  49 SW3       29.72S
PLATTSMOUTH    CLOUDY    63  47  57 N5        29.74R
$$

NEZ044-045-051>053-067-241100-
OMAHA AREA

CITY           SKY/WX    TMP DP  RH WIND       PRES   REMARKS
OMAHA EPPLEY   CLOUDY    54  50  86 NW7       29.74F
BLAIR          RAIN      55  53  94 NE8       29.74S
FREMONT        RAIN      54  53  98 NW9       29.77R
MILLARD        LGT RAIN  59  56  91 CALM      29.75R
OFFUTT AFB     CLOUDY    59  54  84 NW5       29.74R
PLATTSMOUTH    CLOUDY    63  47  57 N5        29.74R
WAHOO          RAIN      55  53  94 NW12      29.76R
$$



USA.gov is the U.S. government's official web portal to all federal, state and local government web resources and services.